GFSNIL_prec_sndepth_021.txt.gz
Snowfall_Accumulation
0.0 0.0 0.0 0.0 0.0 0.0 0.0 0.0 0.0 0.0 0.0 0.0 0.0 0.0 0.0 0.0 0.0 0.0 0.0 0.0 0.0 0.0
0.0 0.0 0.0 0.0 0.0 0.0 0.0 0.0 0.0 0.0 0.0 0.0 0.0 0.0 0.0 0.0 0.0 0.0 0.0 0.0 0.0 0.0
0.0 0.0 0.0 0.0 0.0 0.0 0.0 0.0 0.0 0.0 0.0 0.0 0.0 0.0 0.0 0.0 0.0 0.0 0.0 0.0 0.0 0.0
0.0 0.0 0.0 0.0 0.0 0.0 0.0 0.0 0.0 0.0 0.0 0.0 0.0 0.0 0.0 0.0 0.0 0.1 0.1 0.0 0.0 0.0
0.0 0.0 0.0 0.0 0.0 0.0 0.0 0.0 0.0 0.0 0.0 0.0 0.0 0.0 0.0 0.0 0.2 0.2 0.0 0.0 0.0 0.0
0.0 0.0 0.0 0.0 0.0 0.0 0.0 0.0 0.0 0.0 0.0 0.0 0.0 0.0 0.0 0.0 0.0 0.0 0.0 0.0 0.0 0.0
0.0 0.0 0.0 0.0 0.0 0.0 0.0 0.0 0.0 0.0 0.0 0.0 0.0 0.0 0.0 0.0 0.0 0.0 0.0 0.0 0.0 0.0
0.0 0.0 0.1 0.3 0.3 0.3 0.3 0.0 0.0 0.0 0.1 0.0 0.0 0.0 0.0 0.0 0.3 0.2 0.0 0.0 0.0 0.0
0.6 0.8 1.0 0.8 0.6 0.4 0.3 0.3 0.3 0.3 0.3 0.3 0.0 nan nan 0.0 0.3 0.4 0.0 0.0 0.0 0.0
1.5 1.5 1.1 0.8 0.7 0.5 0.5 0.4 0.4 0.4 0.3 0.4 0.3 nan nan nan 0.5 0.5 0.0 0.0 0.0 0.0
1.3 2.5 1.3 1.1 1.1 0.6 0.5 0.6 0.5 0.5 0.5 0.3 0.3 nan nan nan 0.3 0.3 0.0 0.0 0.0 0.0
2.0 2.9 1.5 3.5 1.6 1.1 1.8 1.2 2.1 1.9 3.2 2.5 2.1 nan nan 0.7 1.3 1.0 0.7 0.0 0.0 0.1
1.9 4.3 3.4 1.9 2.8 3.2 3.1 2.8 3.4 3.2 2.6 0.8 4.0 nan nan nan 5.0 5.5 3.2 1.5 0.1 0.1
1.9 4.5 2.8 3.3 2.7 3.9 4.3 2.2 4.0 3.7 2.8 3.3 1.6 1.7 nan nan 2.8 5.1 6.4 5.2 3.3 1.6

GFSNIL_prec_sndepth_024.txt.gz
Snowfall_Accumulation
0.0 0.0 0.0 0.0 0.0 0.0 0.0 0.0 0.0 0.0 0.0 0.0 0.0 0.0 0.0 0.0 0.0 0.0 0.0 0.0 0.0 0.0
0.0 0.0 0.0 0.0 0.0 0.0 0.0 0.0 0.0 0.0 0.0 0.0 0.0 0.0 0.0 0.0 0.0 0.0 0.0 0.0 0.0 0.0
0.0 0.0 0.0 0.0 0.0 0.0 0.0 0.0 0.0 0.0 0.0 0.0 0.0 0.0 0.0 0.0 0.0 0.0 0.0 0.0 0.0 0.0
0.0 0.0 0.0 0.0 0.0 0.0 0.0 0.0 0.0 0.0 0.0 0.0 0.0 0.0 0.0 0.0 0.0 0.1 0.1 0.0 0.0 0.0
0.0 0.0 0.0 0.0 0.0 0.0 0.0 0.0 0.0 0.0 0.0 0.0 0.0 0.0 0.0 0.0 0.2 0.2 0.0 0.0 0.0 0.0
0.0 0.0 0.0 0.0 0.0 0.0 0.0 0.0 0.0 0.0 0.0 0.0 0.0 0.0 0.0 0.0 0.0 0.0 0.0 0.0 0.0 0.0
0.0 0.0 0.0 0.0 0.0 0.0 0.0 0.0 0.0 0.0 0.0 0.0 0.0 0.0 0.0 0.0 0.0 0.0 0.0 0.0 0.0 0.0
0.0 0.0 0.1 0.3 0.3 0.3 0.3 0.0 0.0 0.0 0.1 0.0 0.0 0.0 0.0 0.0 0.3 0.2 0.0 0.0 0.0 0.0
0.6 0.8 1.0 0.8 0.6 0.4 0.3 0.3 0.3 0.3 0.3 0.3 0.0 nan nan 0.0 0.3 0.4 0.0 0.0 0.0 0.0
1.4 1.5 1.1 0.8 0.7 0.5 0.5 0.4 0.4 0.4 0.3 0.4 0.3 nan nan nan 0.5 0.5 0.0 0.0 0.0 0.0
1.3 2.5 1.3 1.1 1.1 0.6 0.5 0.6 0.5 0.5 0.5 0.3 0.2 nan nan nan 0.3 0.3 0.0 0.0 0.0 0.0
2.0 2.9 1.5 3.5 1.6 1.1 1.8 1.2 2.1 1.8 3.2 2.5 2.1 nan nan 0.6 1.3 1.0 0.7 0.0 0.0 0.1
1.9 4.3 3.4 1.9 2.8 3.2 3.1 2.7 3.3 3.2 2.6 0.8 4.0 nan nan nan 4.9 5.5 3.2 1.4 0.1 0.1
1.9 4.5 2.8 3.3 2.7 3.9 4.3 2.2 4.0 3.7 2.8 3.3 1.6 1.6 nan nan 2.8 5.1 6.4 5.3 3.4 1.6

GFSNIL_prec_sndepth_030.txt.gz
Snowfall_Accumulation
0.0 0.0 0.0 0.0 0.0 0.0 0.0 0.0 0.0 0.0 0.0 0.0 0.0 0.0 0.0 0.0 0.0 0.0 0.0 0.0 0.0 0.0
0.0 0.0 0.0 0.0 0.0 0.0 0.0 0.0 0.0 0.0 0.0 0.0 0.0 0.0 0.0 0.0 0.0 0.0 0.0 0.0 0.0 0.0
0.0 0.0 0.0 0.0 0.0 0.0 0.0 0.0 0.0 0.0 0.0 0.0 0.0 0.0 0.0 0.0 0.0 0.0 0.0 0.0 0.0 0.0
0.0 0.0 0.0 0.0 0.0 0.0 0.0 0.0 0.0 0.0 0.0 0.0 0.0 0.0 0.0 0.0 0.0 0.1 0.1 0.0 0.0 0.0
0.0 0.0 0.0 0.0 0.0 0.0 0.0 0.0 0.0 0.0 0.0 0.0 0.0 0.0 0.0 0.0 0.2 0.2 0.0 0.0 0.0 0.0
0.0 0.0 0.0 0.0 0.0 0.0 0.0 0.0 0.0 0.0 0.0 0.0 0.0 0.0 0.0 0.0 0.0 0.0 0.0 0.0 0.0 0.0
0.0 0.0 0.0 0.0 0.0 0.0 0.0 0.0 0.0 0.0 0.0 0.0 0.0 0.0 0.0 0.0 0.0 0.0 0.0 0.0 0.0 0.0
0.0 0.0 0.1 0.2 0.3 0.2 0.2 0.0 0.0 0.0 0.1 0.0 0.0 0.0 0.0 0.0 0.2 0.2 0.0 0.0 0.0 0.0
0.5 0.7 0.9 0.7 0.5 0.4 0.3 0.3 0.3 0.3 0.3 0.3 0.0 nan nan 0.0 0.2 0.3 0.0 0.0 0.0 0.0
1.3 1.4 1.0 0.8 0.6 0.5 0.4 0.4 0.4 0.3 0.3 0.3 0.3 nan nan nan 0.4 0.4 0.0 0.0 0.0 0.0
1.2 2.5 1.3 1.1 1.0 0.6 0.4 0.5 0.4 0.5 0.5 0.3 0.2 nan nan nan 0.3 0.3 0.0 0.0 0.0 0.0
1.9 2.8 1.4 3.4 1.5 1.1 1.8 1.1 2.0 1.8 3.2 2.4 2.0 nan nan 0.6 1.2 0.9 0.7 0.0 0.0 0.1
1.8 4.2 3.3 1.8 2.8 3.1 3.0 2.6 3.3 3.1 2.6 0.8 4.0 nan nan nan 4.8 5.4 3.1 1.3 0.1 0.1
1.9 4.4 2.7 3.2 2.6 3.8 4.3 2.2 4.0 3.6 2.8 3.2 1.5 1.6 nan nan 2.7 5.1 6.4 5.4 3.3 1.5

GFSNIL_prec_sndepth_033.txt.gz
Snowfall_Accumulation
0.0 0.0 0.0 0.0 0.0 0.0 0.0 0.0 0.0 0.0 0.0 0.0 0.0 0.0 0.0 0.0 0.0 0.0 0.0 0.0 0.0 0.0
0.0 0.0 0.0 0.0 0.0 0.0 0.0 0.0 0.0 0.0 0.0 0.0 0.0 0.0 0.0 0.0 0.0 0.0 0.0 0.0 0.0 0.0
0.0 0.0 0.0 0.0 0.0 0.0 0.0 0.0 0.0 0.0 0.0 0.0 0.0 0.0 0.0 0.0 0.0 0.0 0.0 0.0 0.0 0.0
0.0 0.0 0.0 0.0 0.0 0.0 0.0 0.0 0.0 0.0 0.0 0.0 0.0 0.0 0.0 0.0 0.0 0.1 0.1 0.0 0.0 0.0
0.0 0.0 0.0 0.0 0.0 0.0 0.0 0.0 0.0 0.0 0.0 0.0 0.0 0.0 0.0 0.0 0.1 0.1 0.0 0.0 0.0 0.0
0.0 0.0 0.0 0.0 0.0 0.0 0.0 0.0 0.0 0.0 0.0 0.0 0.0 0.0 0.0 0.0 0.0 0.0 0.0 0.0 0.0 0.0
0.0 0.0 0.0 0.0 0.0 0.0 0.0 0.0 0.0 0.0 0.0 0.0 0.0 0.0 0.0 0.0 0.0 0.0 0.0 0.0 0.0 0.0
0.0 0.0 0.0 0.1 0.2 0.2 0.2 0.0 0.0 0.0 0.1 0.0 0.0 0.0 0.0 0.0 0.2 0.1 0.0 0.0 0.0 0.0
0.3 0.5 0.7 0.6 0.4 0.3 0.2 0.2 0.3 0.3 0.3 0.3 0.0 nan nan 0.0 0.2 0.3 0.0 0.0 0.0 0.0
1.0 1.2 0.9 0.6 0.6 0.4 0.4 0.3 0.3 0.3 0.3 0.3 0.2 nan nan nan 0.4 0.4 0.0 0.0 0.0 0.0
1.1 2.4 1.2 1.0 1.0 0.5 0.4 0.5 0.4 0.5 0.4 0.3 0.2 nan nan nan 0.2 0.3 0.0 0.0 0.0 0.0
1.8 2.8 1.4 3.4 1.5 1.0 1.7 1.1 1.9 1.7 3.1 2.4 2.0 nan nan 0.6 1.2 0.9 0.6 0.0 0.0 0.0
1.8 4.1 3.3 1.8 2.7 3.0 2.9 2.6 3.2 3.0 2.5 0.7 3.9 nan nan nan 4.8 5.3 3.0 1.3 0.1 0.1
1.8 4.4 2.7 3.1 2.5 3.7 4.2 2.1 3.9 3.5 2.7 3.1 1.5 1.5 nan nan 2.7 5.0 6.3 5.3 3.2 1.5